Location: C�an Torras
(41.5052°N, 1.9280°E)
Time: 21:56:52
(UTC+00:00)

Cosmos 923 Rocket - Pass Details

Date: 20 January 2021
Orbit: 758 x 785 km, 74.0° (Epoch: 02 March)

Event Time Altitude Azimuth Distance (km) Brightness Sun altitude
Rises 18:10:14 0° 347° (NNW) 3,284 7.3 -14.3°
Reaches altitude 10° 18:12:48 10° 355° (N) 2,351 6.4 -14.8°
Maximum altitude 18:17:47 38° 64° (ENE) 1,178 4.5 -15.7°
Drops below altitude 10° 18:22:42 10° 132° (SE) 2,326 6.2 -16.6°
Enters shadow 18:23:14 - 134° (SE) 2,517 6.4 -16.7°
